Location: Junction City
(42.7860°N, 96.7861°W)
Time: 07:28:40
(UTC+00:00)

Envisat - Visible Passes

Search period start: 26 November 2020 00:00
Search period end: 06 December 2020 00:00
Orbit: 764 x 766 km, 98.1° (Epoch: 25 November)

Date Brightness Start Highest point End Pass type
(mag) Time Alt. Az. Time Alt. Az. Time Alt. Az.
26 Nov 4.6 11:48:06 10° NNE 11:52:50 37° E 11:57:31 10° SSE visible
27 Nov 5.8 00:43:57 10° SW 00:47:30 19° W 00:51:03 10° NW visible
27 Nov 5.9 11:12:24 10° NE 11:15:43 17° E 11:19:01 10° SE visible
27 Nov 3.1 12:50:07 10° N 12:55:07 58° WNW 13:00:05 10° SSW visible
28 Nov 4.5 00:05:39 10° SSW 00:10:24 41° W 00:15:13 10° NNW visible
28 Nov 3.5 12:13:16 10° NNE 12:18:21 65° ESE 12:23:23 10° S visible
28 Nov 3.1 23:28:27 10° SSE 23:33:31 89° SW 23:38:38 10° NNW visible
29 Nov 6.4 01:12:28 10° W 01:13:14 10° W 01:14:01 10° WNW visible
29 Nov 5.0 11:36:56 10° NE 11:41:22 30° E 11:45:47 10° SSE visible
30 Nov 5.5 00:31:58 10° SSW 00:36:00 24° W 00:40:04 10° NW visible
30 Nov 6.1 11:01:44 10° ENE 11:04:12 13° E 11:06:39 10° ESE visible
30 Nov 2.9 12:38:41 10° N 12:43:46 73° WNW 12:48:48 10° SSW visible
30 Nov 4.0 23:54:03 10° S 23:58:58 52° W 00:03:57 10° NNW visible
01 Dec 3.9 12:01:58 10° NNE 12:06:56 51° E 12:11:51 10° S visible
02 Dec 6.1 00:59:13 10° WSW 01:01:42 14° W 01:04:11 10° WNW visible
02 Dec 5.4 11:25:50 10° NE 11:29:54 24° E 11:33:56 10° SE visible
02 Dec 3.4 13:04:18 10° N 13:09:05 42° WNW 13:13:50 10° SW visible
03 Dec 5.1 00:20:07 10° SSW 00:24:32 30° W 00:28:59 10° NW visible
03 Dec 6.3 10:52:00 10° E 10:52:40 10° E 10:53:20 10° E visible
03 Dec 3.0 12:27:16 10° NNE 12:32:23 89° ESE 12:37:28 10° SSW visible
03 Dec 3.5 23:42:32 10° S 23:47:34 66° W 23:52:38 10° NNW visible
04 Dec 4.4 11:50:42 10° NNE 11:55:29 40° E 12:00:15 10° SSE visible
05 Dec 5.9 00:46:52 10° SW 00:50:11 17° W 00:53:31 10° NW visible
05 Dec 5.7 11:14:51 10° NE 11:18:24 19° E 11:21:56 10° SE visible
05 Dec 3.1 12:52:47 10° N 12:57:44 53° WNW 13:02:40 10° SSW visible
